Location: Melita
(38.4566°N, 122.6369°W)
Time: 13:18:20
(UTC+00:00)

Meteor 1-21 Rocket - Pass Details

Date: 24 January 2020
Orbit: 834 x 907 km, 81.2° (Epoch: 16 February)

Event Time Altitude Azimuth Distance (km) Brightness Sun altitude
Exits shadow 13:04:55 12° 353° (N) 2,465 6.5 -26.8°
Maximum altitude 13:10:31 81° 80° (E) 921 4.3 -25.7°
Drops below altitude 10° 13:16:26 10° 169° (SSE) 2,580 6.9 -24.5°
Sets 13:18:53 0° 170° (S) 3,515 7.6 -24.1°
